Location: Unspecified
(0.0000°N, 0.0000°E)
Time: 19:22:58
(UTC+00:00)

X-37B - Visible Passes

Search period start: 25 September 2020 00:00
Search period end: 05 October 2020 00:00
Orbit: 386 x 387 km, 45.0° (Epoch: 18 September)

Date Brightness Start Highest point End Pass type
(mag) Time Alt. Az. Time Alt. Az. Time Alt. Az.
25 Sep 2.3 19:24:52 10° WSW 19:27:22 31° WNW 19:27:22 31° WNW visible
26 Sep 0.5 18:26:05 10° SW 18:29:14 74° SE 18:32:23 10° NE visible
27 Sep 3.6 19:05:48 10° WNW 19:07:10 12° NW 19:08:32 10° NNW visible
28 Sep 3.5 04:59:32 10° N 05:01:24 15° NE 05:03:15 10° E visible
30 Sep 1.8 04:39:05 21° NNW 04:40:48 40° NE 04:43:48 10° ESE visible
01 Oct 2.2 05:16:32 11° W 05:18:43 20° SW 05:21:08 10° S visible
02 Oct 2.1 04:21:33 29° SSE 04:21:33 29° SSE 04:23:19 10° SSE visible
